Location: San José
(9.9325°N, 84.0796°W)
Time: 09:42:14
(UTC-06:00)

ISS - Visible Passes

Search period start: 08 May 2026 00:00
Search period end: 18 May 2026 00:00
Orbit: 414 x 424 km, 51.6° (Epoch: 8 May)

Date Brightness Start Highest point End Pass type
(mag) Time Alt. Az. Time Alt. Az. Time Alt. Az.
8 May -0.3 04:05:04 10° NNE 04:06:29 12° NE 04:07:54 10° ENE visible
8 May -0.1 18:59:42 10° WNW 19:00:29 11° NW 19:01:16 10° NW visible
9 May -0.8 18:10:14 10° WSW 18:12:52 22° NW 18:15:32 10° N visible
10 May -3.1 04:04:47 10° NNW 04:08:06 57° NE 04:11:25 10° SE visible
11 May -1.4 03:20:50 24° ENE 03:20:50 24° ENE 03:23:21 10° ESE visible
12 May -1.4 04:11:59 12° S 04:11:59 12° S 04:12:19 10° S visible
